Hannover, Germany

1:38 AM CET on December 10, 2018 (GMT +0100)
Hannover

Weather History for EDDV - December, 2018

Change the Weather History Date:

Thursday, December 6, 2018

  Actual Average Record
Temperature  
Mean Temperature 47 °F -  
Max Temperature 53 °F 39 °F 53 °F (2015)
Min Temperature 41 °F 30 °F 17 °F (2016)
Degree Days  
Heating Degree Days 18    
Moisture  
Dew Point 44 °F    
Average Humidity 91    
Maximum Humidity 100    
Minimum Humidity 87    
Precipitation  
Precipitation 0.00 in 0.08 in - ()
Sea Level Pressure  
Sea Level Pressure 29.95 in    
Wind  
Wind Speed 8 mph ()    
Max Wind Speed 16 mph    
Max Gust Speed -    
Visibility 5.8 miles    
Events Rain    
Averages and records for this station are not official NWS values.
T = Trace of Precipitation, MM = Missing Value Source: Averaged Metar Reports

Daily Weather History Graph

Daily Weather History Graph

Search for Another Location

Airport or City:

Astronomy

Dec. 06, 2018 Rise Set
Actual Time 8:15 AM CET 4:08 PM CET
Civil Twilight 7:34 AM CET 4:49 PM CET
Nautical Twilight 6:51 AM CET 5:33 PM CET
Astronomical Twilight 6:09 AM CET 6:14 PM CET
Moon 6:53 AM CET (12/6) 4:03 PM CET (12/6)
Length of Visible Light 9h 14m
Length of Day
7h 52m
Waning Crescent, 1% of the Moon is Illuminated
Dec 6
Waning Crescent
Dec 7
New
Dec 15
First Quarter
Dec 22
Full
Dec 29
Last Quarter

Hourly Weather History & Observations

Time (CET) Temp. Windchill Dew Point Humidity Pressure Visibility Wind Dir Wind Speed Gust Speed Precip Events Conditions
12:20 AM 41.0 °F 35.2 °F 37.4 °F 87% 30.01 in 6.2 mi SSE 9.2 mph - N/A Rain Light Rain
12:50 AM 41.0 °F 35.2 °F 37.4 °F 87% 30.01 in 6.2 mi SSE 9.2 mph - N/A Rain Light Rain
1:20 AM 41.0 °F 35.2 °F 37.4 °F 87% 30.01 in 6.2 mi SSE 9.2 mph - N/A Rain Light Rain
1:50 AM 41.0 °F 35.8 °F 37.4 °F 87% 29.98 in 6.2 mi SSE 8.1 mph - N/A Rain Light Rain
2:20 AM 41.0 °F 35.2 °F 37.4 °F 87% 29.98 in 6.2 mi SSE 9.2 mph - N/A Rain Light Rain
2:50 AM 41.0 °F 35.8 °F 37.4 °F 87% 29.98 in 6.2 mi SE 8.1 mph - N/A Rain Light Rain
3:20 AM 41.0 °F 35.2 °F 37.4 °F 87% 29.98 in 6.2 mi SSE 9.2 mph - N/A Rain Light Rain
3:50 AM 41.0 °F 36.4 °F 37.4 °F 87% 29.95 in - SSE 6.9 mph - N/A   Clear
4:20 AM 41.0 °F 36.4 °F 37.4 °F 87% 29.95 in 6.2 mi SSE 6.9 mph - N/A   Mostly Cloudy
4:50 AM 41.0 °F 35.8 °F 37.4 °F 87% 29.92 in 6.2 mi South 8.1 mph - N/A   Mostly Cloudy
5:20 AM 41.0 °F 36.4 °F 37.4 °F 87% 29.92 in 6.2 mi SSE 6.9 mph - N/A   Mostly Cloudy
5:50 AM 41.0 °F 39.0 °F 39.2 °F 93% 29.95 in 6.2 mi South 3.5 mph - N/A   Mostly Cloudy
6:20 AM 42.8 °F 39.3 °F 39.2 °F 87% 29.92 in 6.2 mi SSE 5.8 mph - N/A   Mostly Cloudy
6:50 AM 42.8 °F 40.1 °F 39.2 °F 87% 29.92 in 6.2 mi SSE 4.6 mph - N/A   Mostly Cloudy
7:20 AM 42.8 °F 40.1 °F 39.2 °F 87% 29.95 in 5.0 mi SSE 4.6 mph - N/A   Light Drizzle
7:50 AM 42.8 °F 38.6 °F 41.0 °F 93% 29.95 in 6.2 mi South 6.9 mph - N/A   Light Drizzle
8:20 AM 44.6 °F 40.2 °F 41.0 °F 87% 29.95 in 6.2 mi South 8.1 mph - N/A   Light Drizzle
8:50 AM 44.6 °F 41.4 °F 41.0 °F 87% 29.95 in 6.2 mi SSW 5.8 mph - N/A   Overcast
9:20 AM 44.6 °F 41.4 °F 41.0 °F 87% 29.95 in 6.2 mi SSW 5.8 mph - N/A   Overcast
9:50 AM 46.4 °F 43.5 °F 42.8 °F 87% 29.98 in 6.2 mi SSW 5.8 mph - N/A   Light Drizzle
10:20 AM 46.4 °F 43.5 °F 44.6 °F 93% 29.95 in 6.2 mi SSW 5.8 mph - N/A   Light Drizzle
10:50 AM 46.4 °F 42.9 °F 44.6 °F 93% 29.95 in 6.2 mi South 6.9 mph - N/A   Light Drizzle
11:20 AM 48.2 °F - 44.6 °F 87% 29.95 in 6.2 mi SSW 6.9 mph - N/A   Mostly Cloudy
11:50 AM 48.2 °F - 46.4 °F 93% 29.95 in 6.2 mi SW 5.8 mph - N/A   Mostly Cloudy
12:20 PM 48.2 °F - 46.4 °F 93% 29.95 in 6.2 mi SW 9.2 mph - N/A   Mostly Cloudy
12:50 PM 48.2 °F - 46.4 °F 93% 29.95 in 6.2 mi SSW 6.9 mph - N/A   Light Drizzle
1:20 PM 48.2 °F - 46.4 °F 93% 29.95 in 6.2 mi SW 8.1 mph - N/A   Light Drizzle
1:50 PM 48.2 °F - 48.2 °F 100% 29.95 in 2.2 mi SW 8.1 mph - N/A Rain Light Rain
2:20 PM 48.2 °F - 48.2 °F 100% 29.95 in 5.0 mi SW 8.1 mph - N/A   Overcast
2:50 PM 50.0 °F - 48.2 °F 94% 29.95 in 4.3 mi WSW 9.2 mph - N/A Rain Light Rain
3:20 PM 50.0 °F - 50.0 °F 100% 29.95 in 4.3 mi SW 9.2 mph - N/A   Overcast
3:50 PM 50.0 °F - 50.0 °F 100% 29.95 in 3.7 mi SW 8.1 mph - N/A Rain Light Rain
4:20 PM 50.0 °F - 50.0 °F 100% 29.95 in 6.2 mi SW 8.1 mph - N/A   Mostly Cloudy
4:50 PM 51.8 °F - 50.0 °F 94% 29.95 in 6.2 mi WSW 10.4 mph - N/A   Mostly Cloudy
5:20 PM 51.8 °F - 50.0 °F 94% 29.95 in - WSW 10.4 mph - N/A   Light Drizzle
5:50 PM 51.8 °F - 50.0 °F 94% 29.95 in 2.2 mi WSW 11.5 mph - N/A   Light Drizzle
6:20 PM 51.8 °F - 50.0 °F 94% 29.95 in 6.2 mi WSW 12.7 mph - N/A   Mostly Cloudy
6:50 PM 51.8 °F - 48.2 °F 88% 29.95 in 6.2 mi SW 11.5 mph - N/A   Mostly Cloudy
7:20 PM 51.8 °F - 48.2 °F 88% 29.95 in 6.2 mi WSW 10.4 mph - N/A   Mostly Cloudy
7:50 PM 51.8 °F - 48.2 °F 88% 29.92 in 6.2 mi WSW 9.2 mph - N/A   Mostly Cloudy
8:20 PM 51.8 °F - 48.2 °F 88% 29.92 in 6.2 mi SW 9.2 mph - N/A   Mostly Cloudy
8:50 PM 51.8 °F - 50.0 °F 94% 29.92 in 6.2 mi SW 9.2 mph - N/A   Mostly Cloudy
9:20 PM 51.8 °F - 50.0 °F 94% 29.92 in 6.2 mi SW 10.4 mph - N/A   Mostly Cloudy
9:50 PM 51.8 °F - 50.0 °F 94% 29.89 in 6.2 mi SW 10.4 mph - N/A   Mostly Cloudy
10:20 PM 51.8 °F - 50.0 °F 94% 29.89 in 6.2 mi SW 11.5 mph - N/A   Mostly Cloudy
10:50 PM 53.6 °F - 50.0 °F 88% 29.89 in 6.2 mi SW 11.5 mph - N/A   Mostly Cloudy
11:20 PM 53.6 °F - 50.0 °F 88% 29.89 in 6.2 mi SW 13.8 mph - N/A   Mostly Cloudy
11:50 PM 53.6 °F - 50.0 °F 88% 29.89 in 6.2 mi WSW 16.1 mph - N/A   Mostly Cloudy